Terug naar catalogus

BONUM 1

ActiefCommunicatieGEO
NORAD 25546·PAYLOAD·🇷🇺 Russia

Gelanceerd Nov 22, 1998 vanaf Cape Canaveral Space Force Station

Loading…

TLE

VersSource: Space-Track

Epoch: Sep 14, 2026, 13:55 UTC

1 25546U 98068A   26257.57995436 -.00000054  00000-0  00000-0 0  9993
2 25546  11.0741  45.5734 0001589  40.0181 141.1717  0.99038836101429

Volg BONUM 1 in realtime met AllMySat

Download on the App Store